Tracking 20370 objects as of 20-Feb-2020
HD Live streaming from Space Station
objects crossing your sky now
Track the group of recently launched Starlink satellites

EKRAN 6

Track EKRAN 6 now!
EKRAN 6 is classified as:


NORAD ID: 12120
Int'l Code: 1980-104A
Perigee: 35,743.0 km
Apogee: 35,828.9 km
Inclination: 11.5 °
Period: 1,435.7 minutes
Semi major axis: 42156 km
RCS: 6.3095 m2 (large)
Launch date: December 26, 1980
Source: Commonwealth of Independent States (former USSR) (CIS)
Launch site: TYURATAM MISSILE AND SPACE COMPLEX (TTMTR)
aabbcc
Your satellite tracking list
Your tracking list is empty




NASA's NSSDC Master Catalog

Two Line Element Set (TLE):
1 12120U 80104A   20050.83554877 +.00000067 +00000-0 +00000-0 0  9996
2 12120 011.5041 315.1454 0010191 017.0296 173.2405 01.00299483104250
Source of the keplerian elements: AFSPC